When you browse on this site, cookies collect data to enhance your experience and personalize the content and advertising you see.
Visit our Privacy Policy to learn more. By continuing to use the site, you agree to this use of cookies and data.
  • In Schweiz
  • Länderverzeichnis
  • Für 7 Tage
  • Wassertemperatur
  • Wetterkarte
  • Widgets
  • user-avatar
    Anmelden

    Stündliche Wetter Herceg Novi

    Heute, 7 Juni, Sonntag

    Zeit Temperatur Niederschläge Wind Luftdruck Luftfeuchtigkeit
    00:00 +18°C° 0 mm 2 m/S 754 mmHg 85%
    01:00 +17°C° 0 mm 2 m/S 754 mmHg 86%
    02:00 +17°C° 0 mm 2 m/S 754 mmHg 87%
    03:00 +16°C° 0 mm 2 m/S 754 mmHg 88%
    04:00 +16°C° 0 mm 2 m/S 754 mmHg 89%
    05:00 +18°C° 0 mm 2 m/S 754 mmHg 87%
    06:00 +19°C° 0 mm 3 m/S 755 mmHg 85%
    07:00 +21°C° 0 mm 3 m/S 755 mmHg 82%
    08:00 +22°C° 0 mm 3 m/S 755 mmHg 80%
    09:00 +24°C° 0 mm 3 m/S 754 mmHg 77%
    10:00 +25°C° 0 mm 3 m/S 754 mmHg 74%
    11:00 +25°C° 0.1 mm 3 m/S 754 mmHg 76%
    12:00 +25°C° 0.1 mm 3 m/S 755 mmHg 77%
    13:00 +25°C° 0.1 mm 3 m/S 755 mmHg 79%
    14:00 +25°C° 0.1 mm 2 m/S 754 mmHg 76%
    15:00 +25°C° 0.1 mm 2 m/S 754 mmHg 72%
    16:00 +25°C° 0.1 mm 2 m/S 754 mmHg 69%
    17:00 +24°C° 0 mm 3 m/S 754 mmHg 75%
    18:00 +21°C° 0 mm 3 m/S 754 mmHg 81%
    19:00 +20°C° 0 mm 3 m/S 754 mmHg 87%
    20:00 +19°C° 0 mm 3 m/S 755 mmHg 88%
    21:00 +18°C° 0 mm 3 m/S 755 mmHg 89%
    22:00 +17°C° 0 mm 3 m/S 755 mmHg 90%
    23:00 +17°C° 0 mm 3 m/S 755 mmHg 90%

    Morgen, 8 Juni, Montag

    Zeit Temperatur Niederschläge Wind Luftdruck Luftfeuchtigkeit
    00:00 +17°C° 0 mm 4 m/S 755 mmHg 90%
    01:00 +17°C° 0 mm 4 m/S 754 mmHg 90%
    02:00 +18°C° 0 mm 3 m/S 754 mmHg 88%
    03:00 +18°C° 0 mm 3 m/S 754 mmHg 87%
    04:00 +18°C° 0 mm 3 m/S 754 mmHg 85%
    05:00 +19°C° 0.2 mm 3 m/S 754 mmHg 86%
    06:00 +20°C° 0.2 mm 3 m/S 754 mmHg 86%
    07:00 +21°C° 0.2 mm 3 m/S 754 mmHg 86%
    08:00 +21°C° 0.4 mm 3 m/S 754 mmHg 87%
    09:00 +21°C° 0.4 mm 3 m/S 755 mmHg 88%
    10:00 +21°C° 0.4 mm 3 m/S 755 mmHg 89%
    11:00 +22°C° 0.2 mm 3 m/S 754 mmHg 85%
    12:00 +23°C° 0.2 mm 4 m/S 754 mmHg 80%
    13:00 +25°C° 0.2 mm 4 m/S 754 mmHg 76%
    14:00 +25°C° 0.3 mm 4 m/S 754 mmHg 77%
    15:00 +25°C° 0.3 mm 4 m/S 754 mmHg 78%
    16:00 +25°C° 0.3 mm 4 m/S 754 mmHg 80%
    17:00 +24°C° 0.2 mm 3 m/S 754 mmHg 83%
    18:00 +21°C° 0.2 mm 3 m/S 754 mmHg 87%
    19:00 +20°C° 0.2 mm 3 m/S 754 mmHg 91%
    20:00 +20°C° 0.1 mm 3 m/S 754 mmHg 91%
    21:00 +19°C° 0.1 mm 3 m/S 755 mmHg 91%
    22:00 +19°C° 0.1 mm 3 m/S 755 mmHg 92%
    23:00 +18°C° 0.6 mm 3 m/S 755 mmHg 92%

    übermorgen, 9 Juni, Dienstag

    Zeit Temperatur Niederschläge Wind Luftdruck Luftfeuchtigkeit
    00:00 +18°C° 0.6 mm 3 m/S 755 mmHg 92%
    01:00 +18°C° 0.6 mm 3 m/S 755 mmHg 93%
    02:00 +18°C° 1.2 mm 3 m/S 754 mmHg 93%
    03:00 +18°C° 1.2 mm 3 m/S 754 mmHg 93%
    04:00 +17°C° 1.2 mm 3 m/S 754 mmHg 93%
    05:00 +19°C° 0.6 mm 3 m/S 754 mmHg 91%
    06:00 +20°C° 0.6 mm 3 m/S 754 mmHg 89%
    07:00 +23°C° 0.6 mm 2 m/S 754 mmHg 87%
    08:00 +24°C° 0.5 mm 2 m/S 754 mmHg 84%
    09:00 +25°C° 0.5 mm 2 m/S 754 mmHg 82%
    10:00 +26°C° 0.5 mm 2 m/S 754 mmHg 79%
    11:00 +26°C° 0.6 mm 2 m/S 754 mmHg 78%
    12:00 +26°C° 0.6 mm 2 m/S 754 mmHg 77%
    13:00 +26°C° 0.6 mm 2 m/S 754 mmHg 76%
    14:00 +26°C° 0.3 mm 2 m/S 754 mmHg 76%
    15:00 +26°C° 0.3 mm 2 m/S 754 mmHg 76%
    16:00 +26°C° 0.3 mm 2 m/S 754 mmHg 76%
    17:00 +24°C° 0.1 mm 2 m/S 754 mmHg 80%
    18:00 +23°C° 0.1 mm 2 m/S 754 mmHg 84%
    19:00 +21°C° 0.1 mm 2 m/S 755 mmHg 88%
    20:00 +21°C° 0 mm 1 m/S 755 mmHg 89%
    21:00 +20°C° 0 mm 1 m/S 755 mmHg 89%
    22:00 +20°C° 0 mm 1 m/S 756 mmHg 90%
    23:00 +18°C° 0.2 mm 2 m/S 756 mmHg 90%

    10 Juni, Mittwoch

    Zeit Temperatur Niederschläge Wind Luftdruck Luftfeuchtigkeit
    00:00 +18°C° 0.2 mm 2 m/S 756 mmHg 90%
    01:00 +18°C° 0.2 mm 2 m/S 755 mmHg 90%
    02:00 +17°C° 0.4 mm 2 m/S 755 mmHg 91%
    03:00 +17°C° 0.4 mm 2 m/S 755 mmHg 91%
    04:00 +17°C° 0.4 mm 2 m/S 755 mmHg 91%
    05:00 +18°C° 0.6 mm 2 m/S 755 mmHg 90%
    06:00 +20°C° 0.6 mm 2 m/S 755 mmHg 88%
    07:00 +21°C° 0.6 mm 2 m/S 755 mmHg 87%
    08:00 +22°C° 0.7 mm 3 m/S 755 mmHg 85%
    09:00 +24°C° 0.7 mm 3 m/S 755 mmHg 83%
    10:00 +25°C° 0.7 mm 4 m/S 755 mmHg 82%
    11:00 +25°C° 0.5 mm 3 m/S 755 mmHg 79%
    12:00 +25°C° 0.5 mm 3 m/S 755 mmHg 75%
    13:00 +25°C° 0.5 mm 2 m/S 755 mmHg 72%
    14:00 +25°C° 0 mm 2 m/S 755 mmHg 70%
    15:00 +25°C° 0 mm 2 m/S 754 mmHg 67%
    16:00 +25°C° 0 mm 2 m/S 754 mmHg 64%
    17:00 +24°C° 0 mm 1 m/S 754 mmHg 72%
    18:00 +22°C° 0 mm 1 m/S 755 mmHg 80%
    19:00 +20°C° 0 mm 1 m/S 755 mmHg 88%
    20:00 +19°C° 0 mm 1 m/S 755 mmHg 89%
    21:00 +19°C° 0 mm 1 m/S 755 mmHg 89%
    22:00 +18°C° 0 mm 1 m/S 755 mmHg 90%
    23:00 +16°C° 0.1 mm 1 m/S 755 mmHg 89%

    11 Juni, Donnerstag

    Zeit Temperatur Niederschläge Wind Luftdruck Luftfeuchtigkeit
    00:00 +16°C° 0.1 mm 1 m/S 755 mmHg 88%
    01:00 +16°C° 0.1 mm 1 m/S 755 mmHg 87%
    02:00 +16°C° 0 mm 1 m/S 755 mmHg 86%
    03:00 +15°C° 0 mm 2 m/S 755 mmHg 85%
    04:00 +15°C° 0 mm 2 m/S 755 mmHg 85%
    05:00 +17°C° 0 mm 2 m/S 755 mmHg 81%
    06:00 +20°C° 0 mm 1 m/S 755 mmHg 77%
    07:00 +22°C° 0 mm 1 m/S 755 mmHg 73%
    08:00 +23°C° 0.1 mm 1 m/S 755 mmHg 70%
    09:00 +24°C° 0.1 mm 2 m/S 754 mmHg 67%
    10:00 +25°C° 0.1 mm 2 m/S 754 mmHg 64%
    11:00 +25°C° 0.1 mm 2 m/S 754 mmHg 64%
    12:00 +25°C° 0.1 mm 2 m/S 754 mmHg 64%
    13:00 +26°C° 0.1 mm 1 m/S 754 mmHg 64%
    14:00 +25°C° 0.2 mm 1 m/S 754 mmHg 66%
    15:00 +25°C° 0.2 mm 1 m/S 754 mmHg 68%
    16:00 +24°C° 0.2 mm 1 m/S 753 mmHg 70%
    17:00 +23°C° 0.2 mm 1 m/S 754 mmHg 76%
    18:00 +21°C° 0.2 mm 1 m/S 754 mmHg 82%
    19:00 +20°C° 0.2 mm 1 m/S 754 mmHg 88%
    20:00 +19°C° 0 mm 1 m/S 754 mmHg 88%
    21:00 +19°C° 0 mm 1 m/S 754 mmHg 87%
    22:00 +18°C° 0 mm 1 m/S 755 mmHg 87%
    23:00 +18°C° 0 mm 1 m/S 755 mmHg 87%

    12 Juni, Freitag

    Zeit Temperatur Niederschläge Wind Luftdruck Luftfeuchtigkeit
    00:00 +16°C° 0 mm 1 m/S 754 mmHg 87%
    01:00 +16°C° 0 mm 1 m/S 754 mmHg 87%
    02:00 +16°C° 0 mm 1 m/S 754 mmHg 87%
    03:00 +16°C° 0 mm 1 m/S 754 mmHg 87%
    04:00 +15°C° 0 mm 1 m/S 754 mmHg 86%
    05:00 +18°C° 0 mm 1 m/S 754 mmHg 83%
    06:00 +20°C° 0 mm 1 m/S 754 mmHg 79%
    07:00 +22°C° 0 mm 1 m/S 754 mmHg 75%
    08:00 +23°C° 0 mm 1 m/S 754 mmHg 71%
    09:00 +25°C° 0 mm 1 m/S 754 mmHg 66%
    10:00 +26°C° 0 mm 2 m/S 754 mmHg 62%
    11:00 +26°C° 0.2 mm 2 m/S 754 mmHg 64%
    12:00 +26°C° 0.2 mm 3 m/S 754 mmHg 66%
    13:00 +26°C° 0.2 mm 3 m/S 754 mmHg 68%
    14:00 +26°C° 0.2 mm 3 m/S 754 mmHg 69%
    15:00 +26°C° 0.2 mm 4 m/S 754 mmHg 70%
    16:00 +26°C° 0.2 mm 4 m/S 754 mmHg 72%
    17:00 +23°C° 0.1 mm 4 m/S 754 mmHg 78%
    18:00 +22°C° 0.1 mm 4 m/S 754 mmHg 85%
    19:00 +20°C° 0.1 mm 4 m/S 754 mmHg 91%
    20:00 +20°C° 0 mm 3 m/S 754 mmHg 91%
    21:00 +19°C° 0 mm 2 m/S 754 mmHg 92%
    22:00 +18°C° 0 mm 2 m/S 754 mmHg 92%
    23:00 +18°C° 0 mm 2 m/S 754 mmHg 92%
    Mehr zeigen